Regional Weather Roundup
Issued by NWS

Home | Current Version | Previous Version | Text Only | Print | Product List | Glossary On
Versions: 1 2 3 4 5 6 7 8 9 10 11 12 13 14 15 16 17 18 19 20 21 22 23 24 25 26 27 28 29 30 31 32 33 34 35 36 37 38 39 40 41 42 43 44 45 46 47 48 49 50
000
ASUS43 KOAX 270202
RWRNE

WEATHER ROUNDUP FOR NEBRASKA
NATIONAL WEATHER SERVICE OMAHA NE
900 PM CDT MON JUN 26 2017

NOTES: SATELLITE DATA IS BEING USED TO AUGMENT CLOUD COVER ABOVE
       12000 FEET.
       "FAIR" INDICATES FEW OR NO CLOUDS BELOW 12,000 FEET WITH NO
       SIGNIFICANT WEATHER AND/OR OBSTRUCTIONS TO VISIBILITY.

  * THESE STATIONS DO NOT REPORT WEATHER SUCH AS RAIN...SNOW OR FOG.

NEZ001>004-019>022-054>056-270300-
NEBRASKA PANHANDLE

CITY           SKY/WX    TMP DP  RH WIND       PRES   REMARKS
SCOTTSBLUFF    CLEAR     78  43  28 SE15      30.05F
ALLIANCE       CLEAR     72  37  28 SE15      30.07F
CHADRON        CLEAR     76  39  26 SE9       30.03F
GORDON         FAIR      71  41  34 SE9       30.08F
SIDNEY         CLEAR     73  48  41 SE17      30.12S
$$

NEZ057>060-069>072-079>082-270300-
SOUTHWEST NEBRASKA

CITY           SKY/WX    TMP DP  RH WIND       PRES   REMARKS
NORTH PLATTE   CLEAR     68  50  52 E7        30.11S
IMPERIAL       CLEAR     72  53  51 E13       30.11R
LEXINGTON      CLEAR     69  52  55 E8        30.12S
MCCOOK         PTCLDY    72  58  61 E9        30.09F
OGALLALA       CLEAR     75  43  31 E12       30.10F
$$

NEZ005>010-023>029-035>040-094-270300-
NORTH CENTRAL NEBRASKA

CITY           SKY/WX    TMP DP  RH WIND       PRES   REMARKS
VALENTINE      PTCLDY    73  37  27 E13       30.11F
AINSWORTH      CLOUDY    67  43  41 SE7       30.14F
BROKEN BOW     PTCLDY    68  46  45 E6        30.13S
O`NEILL        CLEAR     65  42  42 SE3       30.14S
ORD            CLOUDY    67  44  43 E6        30.12S
THEDFORD       PTCLDY    71  41  33 E8        30.14S
$$

NEZ041-046>049-061>064-073>077-083>087-270300-
SOUTH CENTRAL NEBRASKA

CITY           SKY/WX    TMP DP  RH WIND       PRES   REMARKS
GRAND ISLAND   CLOUDY    66  54  65 E7        30.13R
AURORA         CLEAR     66  51  59 NE6       30.13R
HASTINGS       MOCLDY    71  58  63 E8        30.13R
HEBRON         PTCLDY    66  62  85 CALM      30.11S
HOLDREGE       CLEAR     67  55  64 E8        30.11S
KEARNEY *      PTCLDY    70  50  49 E9        30.13R
YORK           CLEAR     64  50  59 NE6       30.12S
$$

NEZ011>018-030>034-042>045-270300-
NORTHEAST NEBRASKA

CITY           SKY/WX    TMP DP  RH WIND       PRES   REMARKS
NORFOLK        CLEAR     66  43  43 NE5       30.13S
ALBION         CLEAR     66  42  41 NE7       30.13S
BLAIR          CLEAR     68  49  50 NE3       30.12R
FREMONT        CLEAR     69  46  43 CALM      30.13R
TEKAMAH        CLEAR     66  46  48 NE7       30.12R
WAYNE          CLEAR     63  47  56 E5        30.13S
$$

NEZ050>053-065>068-078-088>093-270300-
SOUTHEAST NEBRASKA

CITY           SKY/WX    TMP DP  RH WIND       PRES   REMARKS
LINCOLN        MOCLDY    69  52  54 E7        30.11S
OMAHA EPPLEY   PTCLDY    70  51  51 NE6       30.11R
BEATRICE       CLEAR     66  62  88 E3        30.11R
FALLS CITY     CLEAR     66  60  81 CALM      30.09S
NEBRASKA CITY  CLEAR     67  63  88 S3        30.11S
PLATTSMOUTH    CLEAR     67  54  61 E3        30.11S
$$

NEZ044-045-051>053-067-270300-
OMAHA AREA

CITY           SKY/WX    TMP DP  RH WIND       PRES   REMARKS
OMAHA EPPLEY   PTCLDY    70  51  51 NE6       30.11R
BLAIR          CLEAR     68  49  50 NE3       30.12R
FREMONT        CLEAR     69  46  43 CALM      30.13R
MILLARD        CLEAR     72  50  46 CALM      30.11R
OFFUTT AFB     CLEAR     68  52  56 NE5       30.10R
PLATTSMOUTH    CLEAR     67  54  61 E3        30.11S
WAHOO          FAIR      67  48  50 NE6       30.11S
$$




USA.gov is the U.S. government's official web portal to all federal, state and local government web resources and services.